Location: ?????
(31.8092°N, 35.2590°E)
Time: 02:59:06
(UTC+00:00)

Cosmos 2360 Rocket - Pass Details

Date: 20 October 2021
Orbit: 832 x 846 km, 71.0° (Epoch: 07 December)

Event Time Altitude Azimuth Distance (km) Brightness Sun altitude
Rises 17:31:32 0° 219° (SW) 3,368 5.7 -32.6°
Reaches altitude 10° 17:34:07 10° 227° (SW) 2,440 5.0 -33.2°
Maximum altitude 17:39:18 39° 295° (WNW) 1,247 3.4 -34.3°
Enters shadow 17:40:21 35° 320° (NW) 1,318 3.4 -34.5°
